KUIPER-00065

导读 | 星芒AI

KUIPER-00065 是一颗小型天然卫星,属于柯伊伯带天体,位于海王星轨道之外。该卫星直径约为 12 公里,表面呈暗红色,推测由冰和有机物质组成。其轨道呈椭圆形,公转周期较长,与海王星存在引力共振关系。科学家认为 KUIPER-00065 可能是太阳系早期形成过程中的残留物,对研究太阳系演化具有重要价值。目前尚无探测器近距离探测该天体,相关数据主要来自地面望远镜观测。

基本信息
目录编号:
64525
目录名称:
KUIPER-00065
国际标识:
2025-134AB
轨道中心:
EARTH
卫星名称:
KUIPER-00065
卫星全名:
KUIPER-00065
卫星状态:
在轨 (已飞行253 天)
发射日期:
2025-06-23 UTC
国别 :
美国 (US)
星等 :
--
轨道信息
数据来源 国际轨道数据
星历时间: 2026-03-03T03:13:14+0800
5小时前
查看轨道信息
半长轴: 7009.823km
偏心率: 0.0001429
轨道倾角: 51.902°
近地点辐角 206.514°
升交点赤经 271.133°
平近点角 153.575°
近地点: 630.684km
远地点: 632.688km
周期: 97.346分钟
每日圈数: 14.792521
详细信息
使用方式:
暂无
2D轨道图
3D轨道图
轨道高度分析图
轨道倾角分析图
轨道综合分析图
查看轨道综合分析图